Date String (YYYY-MM-DD hh:mm:ss) UTC,Instrument flags,absolute air pressure of the measurement (hPa),sample flow rate (lpm),inlet stack bypass flow (lpm),air temperature of the measurement (°C),ambient temperature measured by the external sensor (°C),aerosol sample conditioner tube jacket temperature (°C),OPC LED temperature (°C),internal box temperature (°C),relative humidity of the measurement (%),span deviation,mass concentration of particles derived from Lorenz-Mie calculation of OPC scattering (μg/m³),mass concentration of particles derived from Lorenz-Mie calculation of OPC scattering (μg/m³),mass concentration of particles derived from Lorenz-Mie calculation of OPC scattering (μg/m³)
DateTimeUTC,F1_M11,P_M11,Q1_M11,Q2_M11,T1_M11,T2_M11,T3_M11,T4_M11,T5_M11,U1_M11,ZSPAN_M11,X2_M11,X0_M11,X1_M11
2024-04-13 10:00:00,SystemResetWarning,0826.8,5.00,000.00,026.3,025.5,000.0,034.8,028.1,010.3,0000.0,0003.64,0010.56,0001.94
2024-04-13 10:01:00,SystemResetWarning,0826.8,5.00,000.00,026.3,025.5,000.0,034.8,028.1,010.2,0000.0,0003.61,0011.12,0001.96
2024-04-13 10:02:00,SystemResetWarning,0826.8,5.00,000.00,026.3,025.5,000.0,034.8,028.2,010.1,0000.0,0003.62,0011.04,0001.95
2024-04-13 10:03:00,SystemResetWarning,0826.8,5.01,000.00,026.3,025.5,000.0,034.8,028.2,010.0,0000.0,0003.63,0010.74,0001.95
2024-04-13 10:04:00,SystemResetWarning,0826.8,5.01,000.00,026.3,025.5,000.0,034.8,028.2,010.1,0000.0,0003.63,0011.73,0001.93
2024-04-13 10:05:00,SystemResetWarning,0826.8,5.00,000.00,026.3,025.5,000.0,034.8,028.1,010.2,0000.0,0003.64,0011.02,0001.93
2024-04-13 10:06:00,SystemResetWarning,0826.8,4.99,000.00,026.3,025.5,000.0,034.8,028.2,010.1,0000.0,0003.62,0010.52,0001.92
2024-04-13 10:07:00,SystemResetWarning,0826.7,4.99,000.00,026.3,025.5,000.0,034.8,028.2,010.0,0000.0,0003.64,0010.82,0001.92
2024-04-13 10:08:00,SystemResetWarning,0826.6,5.00,000.00,026.3,025.5,000.0,034.8,028.2,009.8,0000.0,0003.64,0010.69,0001.92
2024-04-13 10:09:00,SystemResetWarning,0826.6,5.01,000.00,026.3,025.5,000.0,034.8,028.2,009.7,0000.0,0003.59,0010.54,0001.91
2024-04-13 10:10:00,SystemResetWarning,0826.6,5.00,000.00,026.3,025.5,000.0,034.8,028.2,009.8,0000.0,0003.55,0010.36,0001.90
2024-04-13 10:11:00,SystemResetWarning,0826.6,5.01,000.00,026.3,025.5,000.0,034.8,028.2,009.8,0000.0,0003.53,0010.12,0001.89
2024-04-13 10:12:00,SystemResetWarning,0826.6,5.00,000.00,026.3,025.5,000.0,034.8,028.2,010.0,0000.0,0003.48,0009.30,0001.87
2024-04-13 10:13:00,SystemResetWarning,0826.6,5.00,000.00,026.3,025.5,000.0,034.8,028.2,010.0,0000.0,0003.42,0009.03,0001.86
2024-04-13 10:14:00,SystemResetWarning,0826.6,4.99,000.00,026.4,025.5,000.0,034.8,028.2,009.9,0000.0,0003.42,0008.89,0001.85
2024-04-13 10:15:00,SystemResetWarning,0826.6,5.00,000.00,026.4,025.5,000.0,034.8,028.2,009.9,0000.0,0003.43,0007.93,0001.86
2024-04-13 10:16:00,SystemResetWarning,0826.6,5.00,000.00,026.4,025.5,000.0,034.8,028.2,010.0,0000.0,0003.41,0007.84,0001.83
2024-04-13 10:17:00,SystemResetWarning,0826.6,5.00,000.00,026.4,025.6,000.0,034.8,028.2,010.0,0000.0,0003.42,0007.80,0001.84
2024-04-13 10:18:00,SystemResetWarning,0826.6,5.00,000.00,026.4,025.6,000.0,034.9,028.2,010.0,0000.0,0003.39,0007.48,0001.84
2024-04-13 10:19:00,SystemResetWarning,0826.6,5.00,000.00,026.4,025.6,000.0,034.9,028.2,010.0,0000.0,0003.43,0007.58,0001.83
2024-04-13 10:20:00,SystemResetWarning,0826.6,5.01,000.00,026.4,025.6,000.0,034.9,028.2,010.0,0000.0,0003.42,0008.34,0001.84
2024-04-13 10:21:00,SystemResetWarning,0826.6,5.01,000.00,026.4,025.6,000.0,034.9,028.2,009.9,0000.0,0003.42,0008.66,0001.84
2024-04-13 10:22:00,SystemResetWarning,0826.6,5.00,000.00,026.4,025.6,000.0,034.9,028.2,009.8,0000.0,0003.43,0008.90,0001.83
2024-04-13 10:23:00,SystemResetWarning,0826.6,5.01,000.00,026.4,025.6,000.0,034.9,028.2,009.7,0000.0,0003.44,0009.09,0001.81
2024-04-13 10:24:00,SystemResetWarning,0826.6,5.00,000.00,026.4,025.6,000.0,034.9,028.2,009.9,0000.0,0003.44,0009.39,0001.80
2024-04-13 10:25:00,SystemResetWarning,0826.6,5.00,000.00,026.4,025.6,000.0,034.9,028.2,009.9,0000.0,0003.42,0009.53,0001.82
2024-04-13 10:26:00,SystemResetWarning,0826.6,5.00,000.00,026.4,025.7,000.0,034.9,028.2,010.0,0000.0,0003.40,0009.59,0001.81
2024-04-13 10:27:00,SystemResetWarning,0826.6,4.99,000.00,026.4,025.7,000.0,034.9,028.2,010.0,0000.0,0003.40,0009.61,0001.81
2024-04-13 10:28:00,SystemResetWarning,0826.6,5.00,000.00,026.4,025.7,000.0,034.9,028.2,010.0,0000.0,0003.40,0009.58,0001.80
2024-04-13 10:29:00,SystemResetWarning,0826.6,5.00,000.00,026.4,025.7,000.0,034.9,028.2,010.0,0000.0,0003.35,0009.35,0001.77
2024-04-13 10:30:00,SystemResetWarning,0826.8,5.00,000.00,026.4,025.7,000.0,034.9,028.2,010.4,0000.0,0003.33,0009.32,0001.76
2024-04-13 10:31:00,SystemResetWarning,0826.8,5.00,000.00,026.4,025.7,000.0,034.9,028.2,010.5,0000.0,0003.30,0009.26,0001.73
2024-04-13 10:32:00,SystemResetWarning,0826.8,5.00,000.00,026.4,025.7,000.0,034.9,028.2,010.4,0000.0,0003.29,0009.55,0001.72
2024-04-13 10:33:00,SystemResetWarning,0826.7,5.00,000.00,026.4,025.7,000.0,034.9,028.2,010.3,0000.0,0003.25,0009.65,0001.71
2024-04-13 10:34:00,SystemResetWarning,0826.6,5.01,000.00,026.4,025.6,000.0,034.9,028.2,010.2,0000.0,0003.25,0009.60,0001.74
2024-04-13 10:35:00,SystemResetWarning,0826.6,5.01,000.00,026.4,025.6,000.0,034.9,028.2,010.3,0000.0,0003.29,0009.47,0001.76
2024-04-13 10:36:00,SystemResetWarning,0826.6,5.00,000.00,026.4,025.6,000.0,034.9,028.2,010.2,0000.0,0003.32,0009.36,0001.78
2024-04-13 10:37:00,SystemResetWarning,0826.6,5.00,000.00,026.4,025.7,000.0,034.9,028.2,010.1,0000.0,0003.35,0009.60,0001.79
2024-04-13 10:38:00,SystemResetWarning,0826.6,5.00,000.00,026.4,025.7,000.0,034.9,028.2,010.1,0000.0,0003.36,0009.63,0001.82
2024-04-13 10:39:00,SystemResetWarning,0826.6,4.99,000.00,026.4,025.7,000.0,034.9,028.2,010.1,0000.0,0003.34,0009.60,0001.83
2024-04-13 10:40:00,SystemResetWarning,0826.7,5.00,000.00,026.4,025.6,000.0,034.9,028.2,010.3,0000.0,0003.33,0009.59,0001.85
2024-04-13 10:41:00,SystemResetWarning,0826.8,5.01,000.00,026.4,025.6,000.0,034.9,028.2,010.5,0000.0,0003.35,0009.76,0001.87
2024-04-13 10:42:00,SystemResetWarning,0826.8,5.00,000.00,026.4,025.6,000.0,034.9,028.2,010.3,0000.0,0003.38,0009.23,0001.89
2024-04-13 10:43:00,SystemResetWarning,0826.7,4.99,000.00,026.4,025.6,000.0,034.9,028.2,010.3,0000.0,0003.45,0008.67,0001.92
2024-04-13 10:44:00,SystemResetWarning,0826.6,5.00,000.00,026.4,025.6,000.0,034.9,028.2,010.3,0000.0,0003.48,0008.56,0001.94
2024-04-13 10:45:00,SystemResetWarning,0826.6,5.01,000.00,026.4,025.6,000.0,034.9,028.2,010.3,0000.0,0003.48,0008.97,0001.94
2024-04-13 10:46:00,SystemResetWarning,0826.6,5.01,000.00,026.4,025.6,000.0,034.9,028.2,010.3,0000.0,0003.47,0009.22,0001.93
2024-04-13 10:47:00,SystemResetWarning,0826.6,5.00,000.00,026.4,025.6,000.0,034.9,028.2,010.3,0000.0,0003.49,0009.35,0001.91
2024-04-13 10:48:00,SystemResetWarning,0826.6,4.99,000.00,026.4,025.6,000.0,034.9,028.2,010.2,0000.0,0003.50,0009.42,0001.89
2024-04-13 10:49:00,SystemResetWarning,0826.6,5.01,000.00,026.4,025.6,000.0,034.9,028.2,010.3,0000.0,0003.49,0009.89,0001.89
2024-04-13 10:50:00,SystemResetWarning,0826.6,5.00,000.00,026.4,025.6,000.0,034.9,028.2,010.2,0000.0,0003.52,0010.36,0001.91
2024-04-13 10:51:00,SystemResetWarning,0826.6,5.01,000.00,026.4,025.6,000.0,034.9,028.2,010.2,0000.0,0003.55,0010.64,0001.91
2024-04-13 10:52:00,SystemResetWarning,0826.6,5.00,000.00,026.4,025.6,000.0,034.9,028.2,010.2,0000.0,0003.57,0010.63,0001.91
2024-04-13 10:53:00,SystemResetWarning,0826.6,5.00,000.00,026.4,025.6,000.0,034.9,028.2,010.1,0000.0,0003.57,0010.68,0001.90
2024-04-13 10:54:00,SystemResetWarning,0826.6,5.00,000.00,026.4,025.6,000.0,034.9,028.2,010.2,0000.0,0003.50,0010.81,0001.88
2024-04-13 10:55:00,SystemResetWarning,0826.6,5.00,000.00,026.4,025.6,000.0,034.9,028.2,010.2,0000.0,0003.50,0011.11,0001.88
2024-04-13 10:56:00,SystemResetWarning,0826.6,5.00,000.00,026.4,025.6,000.0,034.9,028.3,010.2,0000.0,0003.50,0010.95,0001.88
2024-04-13 10:57:00,SystemResetWarning,0826.6,4.99,000.00,026.4,025.6,000.0,034.9,028.2,010.1,0000.0,0003.58,0010.87,0001.89
2024-04-13 10:58:00,SystemResetWarning,0826.6,5.00,000.00,026.4,025.6,000.0,034.9,028.2,010.0,0000.0,0003.56,0010.74,0001.89
2024-04-13 10:59:00,SystemResetWarning,0826.6,5.00,000.00,026.4,025.6,000.0,034.9,028.2,010.1,0000.0,0003.54,0010.37,0001.91
